Regional Weather Roundup
Issued by NWS New Orleans/Baton Rouge, LA

Home | Current Version | Previous Version | Graphics & Text | Print | Product List | Glossary On
Versions: 1 2 3 4 5 6 7 8 9 10 11 12 13 14 15 16 17 18 19 20 21 22 23 24 25 26 27 28 29 30 31 32 33 34 35 36 37 38 39 40 41 42 43 44 45 46 47 48 49 50
030
ASUS44 KLIX 220005
RWRLIX
NEW ORLEANS REGIONAL WEATHER ROUNDUP
NATIONAL WEATHER SERVICE NEW ORLEANS LA
700 PM CDT TUE OCT 21 2014

NOTE: "FAIR" INDICATES FEW OR NO CLOUDS BELOW 12,000 FEET WITH NO
      SIGNIFICANT WEATHER AND/OR OBSTRUCTIONS TO VISIBILITY.
      SKY/WX - SKY CONDITION AND SIGNIFICANT WEATHER.
      TMP - AIR TEMPERATURE.     DP    - DEWPOINT TEMPERATURE.
      RH  - RELATIVE HUMIDITY.   PRES  - PRESSURE.
      HI  - HEAT INDEX.          WCI   - WIND CHILL INDEX.

*  THESE STATIONS ARE NOT NWS OR FAA STATIONS AND ARE NOT UNDER
   NWS QUALITY CONTROL.

LAZ038-040-048-061>063-065>067-069-220100-
SOUTHEAST LOUISIANA

CITY           SKY/WX    TMP DP  RH WIND       PRES   REMARKS
N.O. AUDUBON     N/A     73  56  54 MISG        N/A
6HR MIN TEMP:  73; 6HR MAX TEMP:  82;

N.O. INTL ARPT PTCLDY    74  54  49 N3        29.98R
6HR MIN TEMP:  74; 6HR MAX TEMP:  80;

N.O. LAKEFRONT CLEAR     75  57  53 CALM      29.98R
6HR MIN TEMP:  74; 6HR MAX TEMP:  79;

N.O. DOWNTOWN*   N/A     77  52  41 E3        29.98S
6HR MIN TEMP:  77; 6HR MAX TEMP:  81;

SLIDELL        CLEAR     68  60  75 CALM      29.98R
6HR MIN TEMP:  68; 6HR MAX TEMP:  82;

BATON ROUGE    CLEAR     67  60  78 NW5       29.99R
6HR MIN TEMP:  67; 6HR MAX TEMP:  82;

BOOTHVILLE     CLEAR     72  57  59 NE3       29.98R
6HR MIN TEMP:  72; 6HR MAX TEMP:  77;

BELLE CHASSE   CLEAR     65  57  75 SE3       29.97S
6HR MIN TEMP:  65; 6HR MAX TEMP:  80;

BOGALUSA*        N/A     69  56  65 CALM      30.00S
6HR MIN TEMP:  69; 6HR MAX TEMP:  83;

NEW ROADS*       N/A     70  60  71 N6        30.00R
6HR MIN TEMP:  70; 6HR MAX TEMP:  80;

GONZALES*        N/A     66  64  92 CALM      29.98S
6HR MIN TEMP:  66; 6HR MAX TEMP:  82;

HAMMOND*       CLEAR     70  57  64 CALM      30.00S
HOUMA*         CLEAR     70  57  64 NE3       29.97S
PORT FOURCHON* PTCLDY    73  57  56 E6        30.01R

$$

MSZ070-080>082-220100-
SOUTHERN MISSISSIPPI

CITY           SKY/WX    TMP DP  RH WIND       PRES   REMARKS
MCCOMB         CLEAR     71  56  58 N5        30.01R
6HR MIN TEMP:  69; 6HR MAX TEMP:  80;

GULFPORT       CLEAR     68  60  75 CALM      29.97R
6HR MIN TEMP:  68; 6HR MAX TEMP:  83;

BILOXI         CLEAR     70  60  68 S5        29.98R
6HR MIN TEMP:  69; 6HR MAX TEMP:  81;

PASCAGOULA     CLEAR     63  58  83 CALM      29.98R
6HR MIN TEMP:  63; 6HR MAX TEMP:  82;

STENNIS ARPT*  CLEAR     63  55  77 CALM      29.98R

$$

COASTAL OBSERVATIONS
LAKE AND NEARSHORE STATIONS

STATION/POSITION TIME  TEMP    WIND        PRES    WAVE
                       AIR SEA DIR/SP/G            HT/PER
                 (UTC) (F)     (DEG/KT/KT) (MB)    (FT/S)
PASCAGOULA       0000   73     240/  5/  6 1014.6
WAVELAND YACHT   0000   71     230/  3/  4 1014.4
GRAND ISLE       0000   73 77   60/  6/  7 1015.6
SOUTHWEST PASS   0000   75 84              1015.3
NEW CANAL        0000   75 73  360/  2/  2 1015.5
SHELL BEACH      0000   71 70  180/  4/  4 1015.0

OFFSHORE STATIONS

STATION/POSITION TIME  TEMP    WIND        PRES    WAVE
                       AIR SEA DIR/SP/G            HT/PER
                 (UTC) (F)     (DEG/KT/KT) (MB)    (FT/S)

$$




USA.gov is the U.S. government's official web portal to all federal, state and local government web resources and services.